Regional Weather Roundup
Issued by NWS Albany, NY

Home | Current Version | Previous Version | Text Only | Print | Product List | Glossary On
Versions: 1 2 3 4 5 6 7 8 9 10 11 12 13 14 15 16 17 18 19 20 21 22 23 24 25 26 27
000
ASUS41 KALY 291810
RWRALY

NEW YORK STATE HOURLY WEATHER ROUNDUP
NATIONAL WEATHER SERVICE ALBANY NY
200 PM EDT WED MAR 29 2017

NOTE: "FAIR" INDICATES FEW OR NO CLOUDS BELOW 12,000 FEET WITH NO
SIGNIFICANT WEATHER AND/OR NO OBSTRUCTIONS TO VISIBILITY.

NYZ032-033-038>043-046>054-057>066-NYZ062>081-082-084-291900-
EAST


CITY           SKY/WX    TMP DP  RH WIND       PRES   REMARKS
ALBANY         PTSUNNY   46  33  60 CALM      30.13F
GLENS FALLS    CLOUDY    43  25  49 NW15G24   30.14R
POUGHKEEPSIE   SUNNY     53  31  42 N9        30.07F
NEWBURGH       MOSUNNY   55  32  41 NW14      30.08F
MONTGOMERY     SUNNY     55  30  38 NW15G28   30.07S
WHITE PLAINS   MOSUNNY   55  32  41 NW18G28   30.04S
ISLIP          MOSUNNY   53  34  48 N18G29    30.04S
NEW YORK CITY  MOSUNNY   57  33  40 NW13      30.05S
CENTRAL PARK   SUNNY     58  31  35 MISG      30.08F
$$

NYZ005>009-017-018-044>046-055-056-291900-
CENTRAL


CITY           SKY/WX    TMP DP  RH WIND       PRES   REMARKS
FULTON         MOSUNNY   44  25  47 NW20      30.25S
SYRACUSE       MOSUNNY   47  25  42 NW17G26   30.24S
ROME           CLOUDY    46  26  45 N16       30.20S
ELMIRA         CLOUDY    47  26  44 N8        30.22S
BINGHAMTON     CLOUDY    42  24  49 N18       30.16F
MONTICELLO     SUNNY     46  28  49 NW10G24   30.11F
$$

NYZ026>034-041>043-087-291900-
NORTH


CITY           SKY/WX    TMP DP  RH WIND       PRES   REMARKS
WATERTOWN      CLOUDY    44  26  49 NW17      30.24S
FORT DRUM      NOT AVBL
MASSENA        CLOUDY    39  25  57 NW6       30.24R WCI  35
SARANAC LAKE   FLURRIES  33  22  63 NW9G16    30.12S WCI  25
PLATTSBURGH    CLOUDY    40  22  48 NW14      30.17S WCI  32
$$

NYZ001>004-010>016-019>021-085-291900-
WEST


CITY           SKY/WX    TMP DP  RH WIND       PRES   REMARKS
NIAGARA FALLS  MOSUNNY   50  33  52 N7        30.25S
BUFFALO        PTSUNNY   50  29  44 N8        30.24S
DUNKIRK        SUNNY     47  36  65 NW5       30.26S
JAMESTOWN      MOSUNNY   48  28  46 N8G17     30.21S
WELLSVILLE     MOSUNNY   47  27  45 NW16      30.20F
ROCHESTER      MOSUNNY   47  26  44 NE12      30.27R
PENN YAN       MOSUNNY   48  25  40 N12G17    30.23F
$$

             KEY
       WCI = WIND CHILL INDEX
       VSB = VISIBILITY
       HX  = HEAT INDEX
$$




USA.gov is the U.S. government's official web portal to all federal, state and local government web resources and services.